Powrót do katalogu

STARLINK-32682

AktywnyŁącznośćVLEO
NORAD 62196·PAYLOAD·🇺🇸 United States

Wystrzelony Dec 4, 2024 z Cape Canaveral Space Force Station

Loading…

Następne Przeloty (najbliższe 24 godziny)

TLE

ŚwieżeSource: CelesTrak SupGP

Epoka: Sep 14, 2026, 21:41 UTC

1 62196C 24229E   26257.90395833  .00040345  00000+0  14616-2 0  2577
2 62196  43.0011 249.4610 0001507 263.9810  43.9639 15.27551675    12

Śledź STARLINK-32682 w czasie rzeczywistym z AllMySat

Download on the App Store